Regional Weather Roundup
Issued by NWS

Home | Current Version | Previous Version | Graphics & Text | Print | Product List | Glossary On
Versions: 1 2 3 4 5 6 7 8 9 10 11 12 13 14 15 16 17 18 19 20 21 22 23 24 25 26 27 28 29 30 31 32 33 34 35 36 37 38 39 40 41 42 43 44 45 46 47 48 49 50
000
ASUS45 KBOU 010710
RWRCO

WEATHER ROUNDUP FOR COLORADO
NATIONAL WEATHER SERVICE DENVER/BOULDER CO
100 AM MDT WED JUL 01 2015

NOTE: "FAIR" INDICATES FEW OR NO CLOUDS BELOW 12000 FEET WITH NO
SIGNIFICANT WEATHER AND/OR OBSTRUCTIONS TO VISIBILITY.

COZ001>005-013-030-031-010800-
...NORTHWEST COLORADO...

CITY           SKY/WX    TMP DP  RH WIND       PRES   REMARKS
CRAIG          MOCLDY    58  48  69 CALM      30.21R
HAYDEN         PTCLDY    64  46  52 SE10      30.24R
MEEKER         PTCLDY    59  48  67 E3        30.22R
MOUNT WERNER   NOT AVBL
STEAMBOAT SPGS PTCLDY    59  49  68 CALM      30.27R
WALDEN         CLOUDY    54  52  94 SE6       30.37F
$$

COZ006>008-011-010800-
...WEST CENTRAL VALLEYS...

CITY           SKY/WX    TMP DP  RH WIND       PRES   REMARKS
GRAND JUNCTION PTCLDY    75  41  29 E3        30.04S
MONTROSE       PTCLDY    74  46  36 SE10      30.16R
EAGLE          PTCLDY    64  52  63 CALM      30.27S
RIFLE          PTCLDY    71  42  35 E3        30.13R
DELTA          PTCLDY    77  47  34 NE6       30.10R
NUCLA          PTCLDY    72  43  35 E6        30.18R
$$

COZ017>023-064>068-010800-
...SOUTHWEST COLORADO...

CITY           SKY/WX    TMP DP  RH WIND       PRES   REMARKS
DURANGO        CLOUDY    69  53  56 E6        30.20R
CORTEZ         CLEAR     67  49  52 E7        30.12R
PAGOSA SPRINGS NOT AVBL
TELLURIDE      CLOUDY    64  41  43 SE7       30.45S
WOLF CREEK PAS NOT AVBL
$$

COZ009-010-012-014-032>034-037-058>063-010800-
...CENTRAL COLORADO...

CITY           SKY/WX    TMP DP  RH WIND       PRES   REMARKS
ASPEN          PTCLDY    58  47  66 SW3       30.33R
BUENA VISTA    MOCLDY    58  52  78 CALM      30.38R
COPPER MTN     MOCLDY    59  37  44 CALM      30.68F
BERTHOUD PASS  FAIR      45  36  70 NW21G26   30.71F
COTTONWOOD PAS NOT AVBL
GUNNISON       MOCLDY    68  45  42 NE9       30.36R
KREMMLING      PTCLDY    59  46  63 CALM      30.34S
LEADVILLE      MOCLDY    50  39  66 N3        30.51F
MONARCH PASS   CLOUDY    50  41  71 E16       30.78R
SALIDA         MOCLDY    60  52  74 W7        30.42R
SUNLIGHT       CLEAR     59  41  51 CALM      30.60S
WILKERSON PASS MOCLDY    54  37  54 CALM      30.65F
$$

COZ069>075-010800-
...SAN LUIS VALLEY/SANGRE DE CRISTO MOUNTAINS...

CITY           SKY/WX    TMP DP  RH WIND       PRES   REMARKS
ALAMOSA        LGT RAIN  64  52  64 SW10      30.32F
LA VETA PASS   CLOUDY    55  46  71 MISG      30.54F THUNDER
SAGUACHE       CLOUDY    63  46  55 N5        30.35R
$$

COZ035-036-038>040-010800-
...NORTHERN COLORADO FRONT RANGE...

CITY           SKY/WX    TMP DP  RH WIND       PRES   REMARKS
DENVER INTL AP CLOUDY    70  53  54 SW7       30.14S
DMNS CITY PARK   N/A     68  57  68 SW3       30.13F
AURORA         MOCLDY    67  56  67 E5        30.17F
FRONT RANGE AP CLOUDY    70  55  60 MISG      30.16F
ERIE MUNI ARPT CLOUDY    67  58  74 CALM      30.13F
BOULDER MUN AP CLOUDY    70  55  60 CALM      30.14F
CENTENNIAL     CLOUDY    70  53  54 CALM      30.18F
BROOMFIELD     CLOUDY    68  55  64 NW3       30.17F
FORT COLLINS   CLOUDY    66  55  68 NW5       30.14F
LONGMONT       CLOUDY    69  57  65 SW5       30.15S
$$

COZ041-046-047-076>085-087-088-010800-
...PIKES PEAK/PALMER DIVIDE AND SOUTHERN FOOTHILLS...

CITY           SKY/WX    TMP DP  RH WIND       PRES   REMARKS
COLO. SPRINGS  CLOUDY    72  49  44 N10       30.20F
A. F. ACADEMY  CLOUDY    68  49  52 NE3       30.22F
ELLICOTT       CLOUDY   N/A N/A N/A N7        30.19F
FALCON         CLOUDY    68  48  49 NW8       30.27F
FORT CARSON    CLOUDY    71  53  52 N8        30.16F
LIMON          CLOUDY    67  55  65 NW8       30.15F
MONUMENT HILL  CLOUDY    63  52  67 MISG      30.27F
TRINIDAD       MOCLDY    73  47  39 W8        30.16R
$$

COZ042>045-048>051-090-091-010800-
...NORTHEAST COLORADO...

CITY           SKY/WX    TMP DP  RH WIND       PRES   REMARKS
GREELEY ARPT   CLOUDY    70  55  60 NW9       30.10S
AKRON          CLOUDY    76  51  41 NW15G28   30.03F
BURLINGTON     MOCLDY    76  53  44 NW13      30.02R
WRAY           CLOUDY    79  56  45 W9        29.94F
STERLING       CLOUDY    73  57  56 NW9         N/A
HOLYOKE        CLOUDY    81  54  39 NW18G31   29.95R
FORT MORGAN    CLOUDY    69  53  58 NE6       30.04F
$$

COZ086-089-092>099-010800-
...SOUTHEAST COLORADO...

CITY           SKY/WX    TMP DP  RH WIND       PRES   REMARKS
PUEBLO         CLOUDY    80  51  36 NW6       30.06F
LA JUNTA       MOCLDY    72  53  51 W12G17    30.02R
LAMAR          MOCLDY    71  53  52 W5        29.95R
SPRINGFIELD      N/A     70  48  45 SW9       30.04F
$$



USA.gov is the U.S. government's official web portal to all federal, state and local government web resources and services.